Location: Bambrugge
(50.9212°N, 3.9299°E)
Time: 02:39:44
(UTC+00:00)

Cosmos 841 Rocket - Pass Details

Date: 23 May 2024
Orbit: 744 x 770 km, 74.0° (Epoch: 21 June)

Event Time Altitude Azimuth Distance (km) Brightness Sun altitude
Rises 00:23:39 0° 338° (NNW) 3,231 7.7 -17.8°
Reaches altitude 10° 00:26:06 10° 343° (NNW) 2,305 6.9 -17.8°
Maximum altitude 00:31:11 50° 59° (ENE) 976 4.3 -17.6°
Drops below altitude 10° 00:36:16 10° 135° (SE) 2,305 5.7 -17.4°
Enters shadow 00:36:27 - 135° (SE) 2,376 5.7 -17.4°
